Погода Агзу

Погода Агзу : погода сейчас, прогноз погоды и архив. Всё, что Вы хотите узнать о погоде Агзу!

Хотите узнать прогноз погоды Агзу? Тогда Вам сюда: Погода Агзу

Поиск расширенной информации на нашем сайте:

Другие новости

Новости СМИ2

Главная страница сайта

Новости сайта

03.07.2017

Напоминаем, что на нашем специализированном сайте Метеоцентр.Азия вы можете получить высокодетализированные автоматические прогнозы погоды по пунктам России, СНГ и мира в авиационном формате (включающие направление и скорость ветра, видимость, явления погоды, количество и форму облачности, нижнюю и верхнюю границу облачности).


Погода Агзу - сегодня

Время (UTC), дата Ветер
(°,м/с) 
Видим.   Явления Облачность Т
(°С)
Тd
(°С)
f(%) Тe
(°С)
Pmin
(гПа)
dP
(гПа)
Po
(мм)
O2
(г/м3)
Тmin Tmax R s Состояние
почвы
12 14.06.18 050 (СВ) н/о    н/о 
+8.2 +5.4 82 +8  1019.6  2.3  749  292           
15 14.06.18 050 (СВ) 20000 м    ясно 
+4.3 +3.3 93 +5  1021.3  1.4  750  297           
18 14.06.18 тихо ()   н/о    н/о 
+0.5 +0.3 99 +1  1021.9  0.3  751  302           
00 15.06.18 080 (В) н/о    н/о 
+12.6 +5.6 62 +14  1020.1  -1.4  750  288           
03 15.06.18 160 (Ю) 20000 м    8/0 верхняя 
[Ci fib]
+17.3 +4.2 42 +18  1018.1  -1.6  749  283           
06 15.06.18 180 (Ю) н/о    н/о 
+18.8 +5.4 41 +19  1016.6  -1.4  748  281           
12 15.06.18 100 (В) н/о    н/о 
+7.7 +4.5 80 +9  1018.8  1.2  749  293           
15 15.06.18 080 (В) 20000 м    10/0 средняя, верхняя 
[Ac trans|Cs]
+5.5 +4 90 +6  1018.9  749  295           
18 15.06.18 100 (В) н/о    н/о 
+4 +3.6 97 +5  1018.5  -0.5  748  297           
00 16.06.18 120 (ЮВ) н/о    н/о 
+11.3 +4.6 63 +12  1016.5  -1  747  288           
03 16.06.18 190 (Ю) 20000 м    10/0 верхняя 
[Cc]
+17.7 +5.2 44 +18  1013.3  -2.7  745  281           
06 16.06.18 160 (Ю) 4{10}  н/о    н/о 
+19.2 +3.7 36 +20  1011  -2.2  744  279           
12 16.06.18 120 (ЮВ) н/о    н/о 
+8.4 +3.7 72 +8  1012.9  0.9  744  290           
15 16.06.18 120 (ЮВ) 20000 м    6/1 1000 м верхняя 
[Sc|Cc]
+5.8 +3.8 87 +7  1012.7  -0.4  744  293           
18 16.06.18 140 (ЮВ) н/о    н/о 
+5.9 +4 88 +5  1011.9  -0.8  744  293           
00 17.06.18 170 (Ю) н/о    н/о 
+8.2 +4.4 77 +8  1010.7  -0.7  743  290           
03 17.06.18 160 (Ю) 20000 м    10/10 600 м 
[Sc]
+9.9 +5.5 74 +9  1009.1  -1.5  742  288           
06 17.06.18 170 (Ю) н/о    н/о 
+12.7 +6.8 67 +13  1007.1  -1.8  740  284           
12 17.06.18 050 (СВ) н/о    н/о 
+7.7 +6.7 93 +9  1008.8  1.3  741  289           
15 17.06.18 050 (СВ) 20000 м    4/0 верхняя 
[Ci fib]
+4.1 +3.8 98 +5  1008.9  -0.2  741  294           
18 17.06.18 тихо ()   н/о    н/о 
+4.8 +4.4 97 +5  1008.9  -0.1  741  293           
00 18.06.18 240 (ЮЗ) н/о    н/о 
+14 +8.5 69 +15  1008  -1.1  741  283           
03 18.06.18 090 (В) 20000 м    10/3 600 м средняя, верхняя 
[Cu med, cong|Ac cast|Cc]
+22 +11.1 50 +25  1005.4  -2  740  274           
06 18.06.18 140 (ЮВ) 4-10{10}  н/о    н/о 
+24.8 +11 42 +28  1003.5  -2  738  271           
12 18.06.18 110 (В) н/о    н/о 
+17.4 +10.6 64 +21  1005  0.6  739  278           
Время (UTC), дата Ветер
(°,м/с) 
Видим.   Явления Облачность Т
(°С)
Тd
(°С)
f(%) Тe
(°С)
Pmin
(гПа)
dP
(гПа)
Po
(мм)
O2
(г/м3)
Тmin Tmax R s Состояние
почвы

Для получения пояснительной информации подведите курсор к названию столбца.

ПОГОДА Агзу - архив

Всё, что Вы хотите узнать о погоде Агзу - удобно и подробно!

Выберите нужную дату (начиная с 1 января 2015* года) и нажмите кнопку "Найти".
Будут отображены архивные сводки погоды по пункту Агзу, начиная с указанной даты.


Отображать данные в формате CSV (для использования в таблицах Excel)


Внимание! Наш архив погоды предназначен исключительно для личного некоммерческого использования в познавательных целях. Если Вам необходимы официальные справки о состоянии погоды (для производственных, юридических, коммерческих и т.п. целей), обращайтесь в органы Росгидромета.

*Примечание: данная дата относится к архиву по метеостанциям СССР (Россия, СНГ, Балтия).
Архив по метеостанциям Зарубежной Европы и Азии (кроме Китая) хранится 10 дней, по другим регионам земного шара (Китай, Африка, Америка, Австралия, Океания) - 1 день.

Агзу - район местоположения метеостанции


Название, широта, долгота, высота метеостанции:
Агзу 47.6°ш. 138.4°д. 165 м над ур. моря [Российская Федерация]

Дополнительная информация

В oтличие oт бoльшинства пoгoдных сайтoв мы публикуем пoдрoбную метеoинфoрмацию в детальнoм прoфессиoнальнoм фoрмате.

Характеристики температуры и влажнoсти вoздуха измеряются на высoте 2 м в тени вдали oт зданий и деревьев.
Скoрoсть ветра измеряется на высoте 10 м (на урoвне рoста челoвека скoрoсть ветра ниже в 1.5-2 раза). Если метеoстанция нахoдится в гoрoде или в лесу, тo скoрoсть ветра занижена на 2-4 м/с пo сравнению с oткрытым местoм. Скoрoсть ветра над акватoриями крупных рек и oзёр, а также на вершинах хoлмoв на 2-5 м/с выше, чем в oбычных услoвиях.
Атмoсфернoе давление в разных тoчках местнoсти мoжет значительнo oтличаться oт давления на метеoстанции, в зависимoсти oт услoвий рельефа (при пoдъёме на 10 м давление пoнижается примернo на 1 мм рт.ст.).